Regional Weather Roundup
Issued by NWS Raleigh/Durham, NC

Home | Current Version | Previous Version | Text Only | Print | Product List | Glossary On
Versions: 1 2 3 4 5 6 7 8 9 10 11 12 13 14 15 16 17 18 19 20 21 22 23 24 25 26 27 28 29 30 31 32 33 34 35 36 37 38 39 40 41 42 43 44 45 46 47 48 49 50
000
ASUS42 KRAH 181810
RWRRAH
NORTH CAROLINA WEATHER ROUNDUP
NATIONAL WEATHER SERVICE RALEIGH NC
100 PM EST THU DEC 18 2014

NOTE: "FAIR" INDICATES FEW OR NO CLOUDS BELOW 12,000 FEET WITH NO
SIGNIFICANT WEATHER AND/OR OBSTRUCTIONS TO VISIBILITY.

NCZ001-053-055-056-065-067-181900-
WESTERN NORTH CAROLINA

CITY           SKY/WX    TMP DP  RH WIND       PRES   REMARKS
ASHEVILLE      PTSUNNY   49  20  31 CALM      30.09F
JEFFERSON      PTSUNNY   44  -2  14 W9        30.06F
MORGANTON      SUNNY     53  23  31 CALM      30.13F
HICKORY        SUNNY     48  25  40 VRB3      30.10F
RUTHERFORDTON  PTSUNNY   51  23  33 S6        30.11F
MOUNT AIRY     CLOUDY    43  20  39 CALM      30.12F
BOONE          PTSUNNY   44   8  22 NW7       30.06F
$$

NCZ021-022-025-041-071-084-088-181900-
CENTRAL NORTH CAROLINA

CITY           SKY/WX    TMP DP  RH WIND       PRES   REMARKS
CHARLOTTE      PTSUNNY   51  23  33 CALM      30.13F
GREENSBORO     CLOUDY    45  21  38 N3        30.11F
WINSTON-SALEM  CLOUDY    44  20  38 N5        30.13F
RALEIGH-DURHAM PTSUNNY   49  22  34 VRB5      30.12F
FORT BRAGG     SUNNY     50  28  42 VRB2      30.12F
FAYETTEVILLE   SUNNY     51  26  37 CALM      30.12F
BURLINGTON     CLOUDY    47  21  35 NW6       30.11F
LAURINBURG     SUNNY     51  30  44 SW3       30.14F
$$

NCZ011-015-027-028-043-044-047-080-103-181900-
NORTHEASTERN NORTH CAROLINA

CITY           SKY/WX    TMP DP  RH WIND       PRES   REMARKS
ROCKY MT-WILSO SUNNY     49  25  39 W5        30.14F
GREENVILLE     SUNNY     48  30  49 CALM      30.13F
WASHINGTON     SUNNY     48  28  46 CALM      30.13F
ELIZABETH CITY SUNNY     52  26  36 NW10      30.12F
MANTEO         SUNNY     45  31  59 N6        30.11F
CAPE HATTERAS  SUNNY     48  34  58 VRB7      30.11F
$$

NCZ078-087-090-091-093-098-101-181900-
SOUTHEASTERN NORTH CAROLINA

CITY           SKY/WX    TMP DP  RH WIND       PRES   REMARKS
LUMBERTON      SUNNY     54  28  36 VRB3      30.12F
GOLDSBORO      SUNNY     50  31  47 CALM      30.11F
KINSTON        SUNNY     48  28  46 N3        30.13F
KENANSVILLE    SUNNY     49  26  41 CALM      30.13F
NEW BERN       SUNNY     51  28  41 CALM      30.13F
CHERRY POINT   MOSUNNY   51  32  48 E5        30.13F
BEAUFORT       MOSUNNY   51  32  48 N8        30.12F
JACKSONVILLE   SUNNY     53  30  41 VRB3      30.11F
WILMINGTON     SUNNY     56  28  34 N3        30.12F
$$




USA.gov is the U.S. government's official web portal to all federal, state and local government web resources and services.